Overview Statistics Trail Chart Weather Telemetry Raw packets
 

This is the latest recevied weather packets stored in our database for station/object DL6DJ-15. If no packets are shown the sender has not sent any weather packets the latest 10 day(s).

<< 84 85 86 87 88 89 90 >>
Time Temp. Humidity Pressure Rain* Wind** Luminosity Snow
1787987237 23.89° C 59% 1019.5 hPa - - - -
1787986937 22.22° C 66% 1019.5 hPa - - - -
1787986636 21.11° C 70% 1019.5 hPa - - - -
1787986336 20.56° C 73% 1019.4 hPa - - - -
1787986035 20° C 75% 1019.5 hPa - - - -
1787985734 21.67° C 65% 1019.5 hPa - - - -
1787985434 22.22° C 64% 1019.5 hPa - - - -
1787985134 23.33° C 61% 1019.4 hPa - - - -
1787984834 22.78° C 61% 1019.4 hPa - - - -
1787984533 22.78° C 63% 1019.3 hPa - - - -
1787984233 23.89° C 60% 1019.4 hPa - - - -
1787983932 23.33° C 65% 1019.2 hPa - - - -
1787983632 21.67° C 74% 1019.1 hPa - - - -
1787983332 18.33° C 91% 1019.1 hPa - - - -
1787983031 16.67° C 97% 1019.2 hPa - - - -
1787982731 16.11° C 97% 1019.2 hPa - - - -
1787982430 16.11° C 97% 1019.2 hPa - - - -
1787982130 16.11° C 98% 1019.1 hPa - - - -
1787981829 16.11° C 98% 1019.1 hPa - - - -
1787981529 16.11° C 99% 1019 hPa - - - -
1787981229 16.11° C 99% 1019 hPa - - - -
1787980928 15.56° C 99% 1019 hPa - - - -
1787980627 15.56° C 99% 1019 hPa - - - -
1787980327 15.56° C 99% 1018.9 hPa - - - -
1787980026 15.56° C 99% 1018.8 hPa - - - -

* Rain since midnight (hover to see other rain measurements)
** Current wind speed in m/s (hover to see current wind gust speed)